Salvador Airport, Brazil

7:04 PM -02 en Octubre 22, 2017 (GMT -0200)
DEP. L. E. Magalhaes International

Tiempo Historia de SBSV - Octubre, 2017

Change the Weather History Date:

Viernes, Octubre 13, 2017

  Actual Average Record
Temperature  
Temperatura media 78 ° F -  
Temperatura máxima 81 ° F 82 ° F 86 ° F (2004)
Temperatura mínima 75 ° F 72 ° F 69 ° F (1997)
Cooling Degree Days 13    
Growing Degree Days 28 (Base 50)    
Moisture  
Punto de rocío 70 ° F    
Average Humidity 74    
Maximum Humidity 89    
Minimum Humidity 61    
Precipitación  
Precipitación 0.04 pul - - ()
Presión al nivel del mar  
Presión al nivel del mar 29.98 pul    
Viento  
Velocidad del viento 9 mph ()    
Velocidad máxima del viento 13 mph    
Max Gust Speed -    
Visibilidad 7.6 Millas    
Eventos      
Averages and records for this station are not official NWS values.
T = Trace of Precipitation, MM = Missing Value Source: Averaged Metar Reports

Daily Weather History Graph

Daily Weather History Graph

Search for Another Location

Airport or City:

Trip Planner

Search our weather history database for the weather conditions in past years. The results will help you decide how hot, cold, wet, or windy it might be!

Date:

Astronomía

Oct. 13, 2017 Salida Puesta
Hora real 5:08 AM -03 5:30 PM -03
Crepúsculo civil 4:47 AM -03 5:51 PM -03
Crepúsculo náutico 4:22 AM -03 6:16 PM -03
Crepúsculo astronómico 3:57 AM -03 6:42 PM -03
Luna 12:22 AM -03 (10/13) 12:13 PM -03 (10/13)
Horas de luz 13h 04m
Horas de luz
12h 21m
Cuarto menguante, 38% of the Moon is Illuminated
Oct 13
Cuarto menguante
Oct 19
Nueva
Oct 27
Cuarto creciente
Nov 4
Luna llena
Nov 10
Cuarto menguante

Hourly Weather History & Observations

Hora (-03) Temp. Índice de calor Punto de rocío Humedad Presión Visibilidad Wind Dir Velocidad del viento Velocidad de ráfagas Precip Eventos Condiciones
12:00 AM 76 ° F - 69 ° F 73% 30.00 pul 12 mi Este 9.2 mph - -   Parcialmente nublado
12:00 AM 77.0 ° F - 69.8 ° F 78% 29.98 pul 6.2 mi Este 9.2 mph - N/A   Nubes dispersas
1:00 AM 75.2 ° F - 69.8 ° F 83% 29.95 pul 6.2 mi ESE 8.1 mph - N/A   Nubes dispersas
2:00 AM 75.2 ° F - 69.8 ° F 83% 29.95 pul 6.2 mi ESE 8.1 mph - N/A   Nubes dispersas
3:00 AM 76 ° F - 70 ° F 75% 29.95 pul 12 mi ESE 8.1 mph - -   Parcialmente nublado
3:00 AM 75.2 ° F - 69.8 ° F 83% 29.95 pul 6.2 mi ESE 8.1 mph - N/A   Nubes dispersas
4:00 AM 75.2 ° F - 68.0 ° F 78% 29.95 pul 6.2 mi ESE 5.8 mph - N/A   Nubes dispersas
5:00 AM 77.0 ° F - 69.8 ° F 78% 29.95 pul 6.2 mi ESE 5.8 mph - N/A   Nubes dispersas
6:00 AM 77 ° F - 70 ° F 73% 29.99 pul 12 mi ESE 8.1 mph - -   Parcialmente nublado
6:00 AM 77.0 ° F - 69.8 ° F 78% 29.98 pul 6.2 mi ESE 8.1 mph - N/A   Nubes dispersas
7:00 AM 78.8 ° F - 69.8 ° F 74% 29.98 pul 6.2 mi Este 11.5 mph - N/A   Nubes dispersas
8:00 AM 80.6 ° F 83.9 ° F 69.8 ° F 70% 30.01 pul 6.2 mi Este 10.4 mph - N/A   Nubes dispersas
9:00 AM 81 ° F - 70 ° F 61% 30.04 pul 12 mi Este 10.4 mph - -   Parcialmente nublado
9:00 AM 80.6 ° F 83.9 ° F 69.8 ° F 70% 30.04 pul 6.2 mi Este 10.4 mph - N/A   Muy nublado
10:00 AM 80.6 ° F 83.9 ° F 69.8 ° F 70% 30.04 pul 6.2 mi Este 9.2 mph - N/A   Muy nublado
11:00 AM 80.6 ° F 84.6 ° F 71.6 ° F 74% 30.01 pul 6.2 mi SE 10.4 mph - N/A   Nubes dispersas
12:00 PM 81 ° F - 71 ° F 64% 30.01 pul 12 mi ESE 12.7 mph - -   Parcialmente nublado
12:00 PM 80.6 ° F 84.6 ° F 71.6 ° F 74% 30.01 pul 6.2 mi ESE 12.7 mph - N/A   Nubes dispersas
1:00 PM 82.4 ° F 86.3 ° F 69.8 ° F 66% 29.98 pul 6.2 mi ESE 11.5 mph - N/A   Nubes dispersas
2:00 PM 82.4 ° F 86.3 ° F 69.8 ° F 66% 29.95 pul 6.2 mi ESE 11.5 mph - N/A   Nubes dispersas
3:00 PM 81 ° F - 70 ° F 61% 29.96 pul 12 mi SE 12.7 mph - -   Nubes dispersas
3:00 PM 80.6 ° F 83.9 ° F 69.8 ° F 70% 29.95 pul 6.2 mi SE 12.7 mph - N/A   Parcialmente nublado
4:00 PM 80.6 ° F 83.9 ° F 69.8 ° F 70% 29.95 pul 6.2 mi ESE 12.7 mph - N/A   Nubes dispersas
5:00 PM 78.8 ° F - 69.8 ° F 74% 29.95 pul 6.2 mi ESE 11.5 mph - N/A   Nubes dispersas
6:00 PM 78 ° F - 71 ° F 72% 29.98 pul 12 mi SE 9.2 mph - -   Parcialmente nublado
6:00 PM 78.8 ° F - 71.6 ° F 78% 29.98 pul 6.2 mi SE 9.2 mph - N/A   Nubes dispersas
7:00 PM 77.0 ° F - 69.8 ° F 78% 29.98 pul 6.2 mi ESE 9.2 mph - N/A   Nubes dispersas
8:00 PM 77.0 ° F - 69.8 ° F 78% 29.98 pul 6.2 mi ESE 9.2 mph - N/A   Nubes dispersas
9:00 PM 78 ° F - 69 ° F 68% 30.01 pul 12 mi Este 10.4 mph - -   Parcialmente nublado
9:00 PM 77.0 ° F - 69.8 ° F 78% 30.01 pul 6.2 mi Este 10.4 mph - N/A   Nubes dispersas
10:00 PM 75.2 ° F - 71.6 ° F 89% 29.98 pul 6.2 mi Este 10.4 mph - N/A   Nubes dispersas
11:00 PM 75.2 ° F - 71.6 ° F 89% 29.98 pul 5.6 mi Este 12.7 mph - N/A   Nubes dispersas